Powrót do katalogu

STARLINK-2545

AktywnyŁącznośćVLEO
NORAD 48289·PAYLOAD·🇺🇸 United States

Wystrzelony Apr 29, 2021 z Cape Canaveral Space Force Station

Loading…

Następne Przeloty (najbliższe 24 godziny)

TLE

ŚwieżeSource: CelesTrak SupGP

Epoka: Sep 15, 2026, 02:19 UTC

1 48289C 21036P   26258.09701389 -.00000057  00000+0 -18246-5 0  2580
2 48289  53.1577 274.2270 0001456  91.4811 297.0844 15.31718495    14

Śledź STARLINK-2545 w czasie rzeczywistym z AllMySat

Download on the App Store